Wind_Speed
50 51 39 41 45 47 47 46 44 38 42 49 47 42 35 39 40 38 38 39 40 41 37 36 35 33 32 33 33 33 32 30 33 35 36 38 39 40 42 46 48 51 56 56
52 44 42 40 42 47 41 38 38 39 43 47 46 48 38 38 40 37 39 42 42 43 42 40 38 35 36 36 36 35 34 35 36 37 38 39 41 44 45 49 52 55 57 54
44 44 46 46 44 43 41 40 41 40 40 41 46 52 45 39 39 38 36 41 44 45 44 42 39 39 40 40 39 37 39 40 41 42 41 43 45 48 51 54 56 57 54 54
45 43 42 43 43 43 42 41 41 39 39 40 39 42 40 42 39 38 36 38 43 46 46 44 43 44 44 42 41 42 42 43 45 47 46 47 50 51 53 57 58 58 58 54
43 41 42 42 39 41 41 41 42 42 42 42 40 42 34 38 40 39 40 40 41 46 48 47 47 47 46 46 46 46 47 48 50 51 51 52 51 53 54 60 60 58 57 57
50 49 47 45 43 43 44 42 43 45 43 43 38 37 43 32 37 40 40 40 42 44 48 51 51 50 49 49 49 49 50 52 54 55 54 55 55 55 58 61 59 59 58 57
48 49 47 45 45 46 45 43 45 47 47 45 44 39 40 38 33 34 39 41 42 42 45 48 52 52 51 51 50 52 53 55 57 57 58 58 57 58 61 62 62 60 57 55
46 47 46 47 48 47 46 46 48 50 50 49 47 46 43 39 37 37 37 38 38 41 46 49 50 51 50 50 51 54 55 57 58 58 59 59 60 63 64 64 58 57 55 55
43 46 45 45 46 49 50 52 50 51 53 53 52 50 47 44 41 39 39 41 41 45 46 46 48 48 49 51 54 55 56 58 58 59 60 61 63 63 59 58 57 57 57 53
41 41 41 42 43 45 48 49 51 54 55 56 56 53 52 50 47 45 43 42 47 44 42 43 44 47 49 52 53 54 55 57 57 58 61 61 61 58 57 57 57 55 52 51
41 40 39 38 39 40 42 44 46 47 50 54 56 56 54 52 49 48 47 43 41 44 45 45 46 47 49 51 53 54 55 56 59 62 61 59 58 55 55 53 53 52 52 52
32 33 33 33 33 36 38 40 44 48 50 52 55 55 55 54 50 47 44 42 40 41 45 48 48 50 52 52 53 55 58 60 60 61 59 56 55 55 54 52 51 52 53 53
37 37 36 35 35 35 34 35 39 43 46 48 54 54 54 53 51 48 48 48 49 51 48 47 49 52 53 56 59 60 59 58 58 56 55 53 53 52 51 52 53 52 52 53
39 38 38 39 39 36 35 34 36 39 41 44 46 47 50 52 53 55 55 53 52 53 53 54 55 57 58 57 57 56 56 54 53 53 53 52 52 53 53 53 53 53 53 54
38 37 37 37 37 40 40 39 38 37 39 44 43 44 45 49 51 53 54 51 52 56 55 53 53 53 51 49 49 49 50 51 51 50 51 52 52 53 53 54 54 54 55 57
32 32 33 36 38 41 42 41 40 38 40 41 44 43 42 42 45 52 50 52 54 52 51 53 51 48 47 47 46 46 48 49 49 49 49 48 50 51 52 53 54 55 57 60
30 31 32 34 36 38 40 40 40 37 36 35 35 31 35 39 40 42 45 47 44 44 46 46 46 45 44 44 45 47 48 49 49 49 49 50 51 52 53 55 57 58 60 62
32 32 33 34 36 39 37 37 36 37 33 31 31 32 35 38 41 43 41 37 41 40 40 41 42 43 44 45 45 45 46 47 49 51 52 52 53 55 57 59 60 62 63 64
34 35 35 34 35 35 36 35 33 34 32 34 33 32 35 38 38 39 35 40 42 41 42 41 41 42 43 45 48 50 52 53 55 54 56 58 59 61 61 62 63 64 66 66
41 40 37 37 36 35 34 35 35 34 34 28 30 35 36 36 38 32 37 40 41 44 45 46 46 45 45 44 47 52 55 59 59 59 59 59 62 62 63 64 64 66 66 64
40 38 36 35 36 35 33 36 35 34 29 29 31 32 32 33 34 37 39 43 45 50 54 56 56 55 53 56 62 64 64 64 66 68 69 68 66 61 63 62 62 62 60 51
41 39 37 36 37 37 37 35 38 31 36 36 36 37 39 38 44 48 50 49 53 56 56 55 61 68 67 68 68 70 71 76 76 71 73 73 69 62 57 55 52 47 39 29
44 43 41 40 39 41 45 45 42 42 43 42 41 44 48 52 52 55 55 61 65 66 64 66 69 74 72 74 72 73 77 83 84 81 73 69 57 52 46 41 33 31 30 28
39 40 43 44 45 45 46 50 51 49 48 47 54 61 62 63 66 62 65 71 75 74 72 71 74 79 78 81 84 88 90 86 82 70 60 50 42 35 30 27 27 25 24 24
42 44 46 48 50 53 52 49 47 49 54 59 59 59 59 62 63 71 72 71 74 73 74 80 83 86 85 85 86 87 81 71 60 54 46 35 29 26 27 26 23 22 23 27
44 46 50 50 49 51 52 52 53 53 54 55 59 62 65 69 71 73 74 73 72 74 83 87 82 75 66 62 58 55 49 42 38 33 29 26 24 24 19 19 21 24 27 26
Wind_Direction
244 239 252 250 250 246 246 250 252 253 253 253 257 260 261 260 262 266 261 257 256 258 257 258 261 261 261 261 263 265 268 272 273 274 280 283 288 295 301 302 300 304 308 307
240 241 242 247 248 256 257 259 266 260 255 257 253 252 257 259 256 256 257 255 254 255 254 254 258 257 258 258 260 264 268 270 273 277 281 283 290 298 300 301 300 303 306 304
232 234 238 241 246 248 253 257 264 258 260 260 257 252 251 256 256 253 255 256 255 253 250 251 252 253 255 257 260 263 265 270 274 276 277 280 288 293 297 299 301 304 304 304
231 231 234 237 241 243 249 254 258 263 261 262 260 260 251 252 257 256 254 252 255 255 251 250 251 253 256 259 261 263 267 270 272 275 276 280 285 291 293 297 301 303 303 300
236 237 236 239 244 246 246 246 253 259 265 266 262 264 254 251 254 259 260 259 253 256 255 253 253 255 258 259 262 264 267 270 273 275 276 280 284 287 293 297 298 300 301 298
235 237 237 240 243 244 245 246 252 258 267 268 268 270 264 260 253 256 259 260 259 254 255 256 256 256 257 259 261 264 267 270 272 273 275 280 282 286 292 294 297 298 296 295
239 238 238 239 243 246 248 249 255 260 264 268 269 265 267 270 259 257 260 260 259 259 258 257 257 259 261 262 264 266 267 268 271 273 277 280 283 289 292 296 296 295 294 295
233 237 240 243 244 247 248 250 253 257 261 265 266 267 268 269 271 264 262 262 261 258 256 258 258 259 260 262 264 265 267 269 272 275 278 282 287 292 295 295 294 294 293 293
239 240 238 240 241 244 247 250 254 257 262 266 266 266 268 270 274 275 267 264 267 263 259 259 258 260 261 262 264 266 269 271 274 277 281 285 290 292 292 291 292 291 291 291
235 236 236 238 242 245 248 251 254 257 260 263 265 267 269 270 271 272 272 268 262 267 269 266 261 260 261 263 266 269 272 274 278 282 286 289 289 289 289 290 290 290 290 290
236 234 235 239 244 248 251 254 257 257 257 260 263 264 267 269 269 268 268 270 271 268 266 265 266 266 265 265 266 270 276 280 284 287 287 286 286 287 288 288 288 288 289 290
231 230 236 239 241 243 246 248 252 255 257 257 260 262 266 268 268 268 268 269 269 267 266 267 268 269 269 271 273 276 280 283 286 284 284 284 285 286 287 287 286 287 287 288
226 231 235 239 243 250 255 257 257 259 261 264 260 264 263 266 269 272 273 272 270 268 270 271 271 272 274 277 280 282 284 284 283 282 284 285 286 285 285 285 287 287 289 291
228 231 237 243 247 248 253 253 254 255 258 259 261 262 263 266 266 266 266 268 273 277 276 273 273 276 278 279 281 281 281 282 283 284 285 286 286 286 287 289 291 291 291 291
231 236 242 247 249 251 253 257 258 259 259 259 259 257 260 261 264 267 269 271 269 270 273 275 276 277 279 280 280 280 281 282 283 285 287 288 290 291 291 291 290 291 292 293
237 240 243 245 247 250 254 255 255 252 253 257 260 263 263 267 266 264 267 268 271 274 277 278 279 279 279 280 281 282 283 284 286 287 287 288 288 289 290 291 292 293 293 294
241 243 244 247 250 251 251 256 259 261 259 262 261 267 262 259 265 271 270 270 273 272 272 274 275 277 279 282 283 285 287 288 288 288 289 289 289 290 291 292 292 293 294 295
244 250 253 255 258 257 258 261 263 264 264 268 267 267 268 272 271 270 274 280 279 281 284 283 283 284 285 285 287 288 288 288 290 291 290 290 290 291 291 292 293 293 294 294
248 254 255 260 263 263 260 265 269 267 269 272 275 276 274 274 280 289 297 291 292 295 294 294 293 291 291 293 296 297 296 294 292 290 291 292 293 292 293 293 294 295 295 296
251 252 258 266 271 270 267 269 271 271 270 278 274 272 276 281 284 291 290 295 297 298 299 297 293 291 291 293 300 295 293 291 289 289 289 290 291 292 293 295 296 295 297 298
255 259 263 269 270 270 269 269 268 273 289 277 274 276 279 284 293 293 296 297 299 301 300 298 294 288 284 288 292 296 295 296 289 287 287 290 295 299 295 295 295 297 298 298
252 256 263 263 266 279 278 276 274 270 271 278 281 276 276 280 286 289 292 293 295 296 293 290 293 292 286 290 293 292 289 291 295 295 292 293 295 299 294 293 295 296 296 294
247 258 264 264 270 274 275 276 276 277 277 278 277 282 287 288 286 287 289 294 295 294 290 289 291 294 289 289 290 289 290 294 294 296 295 294 293 291 289 290 290 291 290 287
250 254 257 261 265 267 268 268 268 269 275 281 282 279 279 280 283 287 288 292 294 291 287 291 291 285 286 288 288 290 290 288 290 290 285 281 280 279 275 279 282 290 293 293
245 249 258 263 269 265 263 267 268 267 268 271 273 274 277 280 281 286 287 284 283 285 292 290 289 290 288 285 284 284 283 281 279 275 274 271 267 258 267 273 277 287 294 294
254 260 261 262 259 258 257 260 266 271 273 273 274 276 277 281 280 279 278 280 288 291 289 289 288 287 286 284 283 282 281 277 269 259 259 254 254 263 260 274 275 280 291 291
Height
5746 5752 5759 5764 5766 5770 5774 5777 5781 5783 5786 5790 5794 5796 5799 5800 5802 5805 5807 5809 5811 5812 5816 5817 5819 5820 5820 5820 5820 5820 5821 5821 5820 5819 5819 5818 5817 5815 5812 5811 5808 5805 5802 5798
5740 5746 5751 5755 5759 5762 5765 5770 5774 5775 5778 5779 5781 5786 5791 5791 5793 5796 5797 5799 5801 5803 5806 5808 5810 5811 5811 5811 5811 5813 5814 5813 5813 5812 5811 5809 5807 5804 5802 5800 5798 5795 5792 5788
5731 5737 5741 5746 5750 5754 5758 5762 5764 5767 5768 5769 5772 5775 5781 5784 5785 5787 5790 5791 5793 5795 5796 5798 5800 5801 5801 5802 5803 5804 5804 5804 5803 5803 5801 5799 5797 5794 5792 5789 5787 5784 5780 5777
5720 5727 5732 5737 5742 5746 5749 5754 5756 5758 5759 5761 5764 5764 5773 5776 5777 5779 5780 5782 5783 5785 5788 5790 5791 5791 5791 5793 5794 5795 5795 5794 5793 5792 5790 5788 5785 5783 5781 5779 5775 5773 5770 5766
5715 5719 5725 5730 5735 5736 5741 5744 5747 5749 5752 5752 5755 5756 5764 5767 5769 5770 5771 5773 5774 5776 5778 5781 5782 5783 5785 5785 5785 5785 5784 5784 5783 5781 5780 5778 5775 5772 5770 5768 5764 5761 5758 5755
5705 5711 5716 5721 5724 5727 5731 5735 5739 5742 5745 5745 5750 5751 5749 5760 5761 5761 5762 5763 5765 5766 5768 5770 5771 5772 5773 5774 5774 5774 5775 5774 5772 5770 5768 5766 5764 5762 5760 5757 5753 5750 5747 5743
5697 5703 5709 5714 5717 5720 5725 5731 5732 5734 5735 5737 5739 5744 5744 5745 5750 5753 5753 5754 5756 5757 5760 5761 5761 5762 5763 5763 5764 5764 5763 5761 5760 5758 5757 5755 5753 5752 5748 5744 5741 5738 5734 5730
5687 5694 5701 5707 5710 5715 5718 5721 5723 5723 5725 5728 5730 5733 5736 5737 5739 5744 5745 5745 5747 5748 5749 5750 5751 5752 5752 5753 5753 5752 5751 5750 5748 5746 5745 5744 5742 5739 5735 5731 5727 5724 5721 5718
5681 5685 5692 5696 5700 5705 5708 5709 5715 5716 5716 5718 5720 5724 5727 5729 5731 5732 5735 5737 5736 5737 5738 5739 5742 5743 5743 5742 5741 5740 5739 5738 5737 5736 5734 5732 5729 5725 5722 5719 5715 5713 5709 5705
5671 5676 5680 5685 5690 5694 5697 5702 5704 5705 5707 5709 5711 5715 5718 5720 5721 5721 5723 5724 5725 5727 5730 5731 5731 5731 5731 5730 5730 5730 5729 5728 5726 5724 5721 5718 5715 5712 5709 5706 5703 5700 5696 5692
5663 5669 5674 5677 5682 5686 5689 5691 5695 5698 5699 5699 5701 5705 5707 5709 5711 5711 5711 5713 5716 5718 5719 5720 5720 5721 5721 5720 5719 5718 5717 5715 5713 5710 5708 5705 5702 5699 5696 5693 5690 5687 5683 5680
5657 5661 5666 5670 5673 5675 5677 5681 5683 5684 5689 5691 5692 5695 5696 5697 5700 5701 5702 5702 5703 5705 5707 5709 5710 5710 5709 5708 5707 5706 5704 5701 5699 5697 5694 5692 5688 5685 5683 5680 5677 5674 5671 5668
5650 5653 5657 5660 5666 5667 5669 5673 5675 5677 5680 5682 5682 5686 5685 5686 5688 5690 5690 5691 5692 5693 5697 5699 5698 5697 5697 5695 5693 5691 5689 5687 5686 5683 5681 5678 5675 5672 5670 5668 5665 5662 5658 5654
5640 5645 5650 5655 5657 5661 5662 5664 5666 5668 5669 5670 5673 5675 5677 5676 5677 5676 5677 5681 5683 5685 5686 5685 5685 5684 5682 5680 5678 5678 5676 5674 5671 5669 5666 5664 5662 5660 5658 5654 5651 5647 5644 5641
5634 5639 5643 5646 5649 5652 5655 5657 5657 5659 5662 5659 5664 5664 5666 5666 5665 5666 5667 5668 5668 5670 5672 5672 5670 5669 5667 5666 5665 5663 5662 5660 5658 5656 5654 5652 5649 5646 5643 5640 5637 5634 5631 5628
5629 5633 5635 5637 5640 5642 5645 5650 5649 5649 5649 5650 5652 5655 5657 5657 5656 5654 5659 5657 5658 5659 5658 5657 5657 5656 5654 5652 5651 5650 5648 5647 5645 5643 5641 5639 5636 5633 5630 5628 5624 5620 5617 5614
5621 5625 5628 5630 5632 5633 5637 5641 5641 5642 5642 5644 5645 5650 5647 5644 5644 5645 5645 5646 5648 5646 5645 5645 5644 5643 5641 5640 5639 5638 5636 5634 5632 5630 5627 5625 5623 5620 5617 5613 5609 5606 5602 5598
5615 5619 5622 5624 5626 5626 5633 5634 5633 5633 5635 5636 5638 5639 5636 5635 5635 5635 5637 5637 5636 5635 5635 5634 5632 5631 5630 5628 5628 5627 5625 5623 5620 5618 5615 5612 5608 5604 5601 5598 5594 5590 5585 5582
5609 5611 5614 5616 5619 5623 5626 5628 5628 5626 5630 5627 5629 5629 5628 5627 5628 5630 5628 5626 5627 5627 5625 5624 5623 5622 5620 5619 5618 5616 5614 5611 5607 5603 5600 5596 5592 5589 5586 5582 5578 5573 5569 5565
5599 5603 5606 5609 5610 5614 5619 5620 5619 5618 5623 5622 5621 5619 5619 5620 5621 5624 5619 5619 5619 5618 5616 5614 5613 5611 5609 5607 5605 5602 5598 5594 5590 5587 5584 5580 5577 5573 5568 5565 5561 5556 5553 5549
5591 5594 5597 5599 5601 5608 5611 5610 5610 5613 5620 5610 5611 5611 5611 5612 5613 5613 5611 5610 5609 5607 5606 5604 5602 5599 5596 5593 5589 5585 5581 5575 5572 5569 5565 5562 5559 5555 5552 5548 5544 5542 5538 5534
5582 5584 5589 5591 5594 5600 5603 5603 5603 5602 5600 5602 5601 5600 5601 5603 5601 5600 5599 5597 5597 5594 5592 5589 5587 5584 5580 5577 5572 5567 5561 5556 5553 5550 5547 5543 5541 5539 5536 5533 5531 5528 5525 5523
5571 5576 5580 5583 5589 5592 5591 5591 5590 5588 5590 5590 5590 5589 5589 5590 5588 5586 5585 5583 5580 5576 5573 5568 5565 5565 5561 5556 5550 5545 5540 5536 5532 5531 5529 5526 5525 5523 5521 5520 5519 5518 5516 5515
5563 5567 5570 5571 5581 5582 5581 5579 5579 5578 5580 5579 5578 5576 5575 5576 5575 5573 5570 5566 5561 5556 5552 5548 5545 5542 5539 5533 5528 5522 5519 5516 5513 5512 5511 5510 5509 5509 5509 5510 5510 5509 5508 5508
5556 5556 5560 5563 5567 5566 5567 5568 5567 5563 5564 5564 5562 5561 5562 5559 5560 5556 5552 5548 5543 5538 5533 5527 5524 5519 5514 5508 5502 5497 5494 5492 5491 5493 5495 5496 5496 5497 5499 5501 5502 5502 5502 5501
5547 5549 5547 5550 5551 5548 5551 5549 5550 5550 5550 5548 5545 5545 5543 5541 5540 5536 5534 5531 5526 5520 5513 5508 5500 5493 5487 5483 5479 5475 5472 5472 5475 5478 5481 5484 5486 5489 5491 5492 5494 5494 5494 5493